| time (UTC) | temp C | wind direction | speed KPH | gust KPH | rain 1hr cm | rain 24hr cm | rain mn cm | humidity % | barometer mb |
| 20260507220009 | 11 | 340 | 4.8 | 9.7 | 0.00 | 0.00 | 0.00 | 50 | 1010.4 |
| 20260507214509 | 11 | 360 | 3.2 | 19.3 | 0.00 | 0.00 | 0.00 | 50 | 1010.5 |
| 20260507213011 | 11 | 5 | 6.4 | 14.5 | 0.00 | 0.00 | 0.00 | 49 | 1010.4 |
| 20260507211508 | 11 | 351 | 8.0 | 16.1 | 0.00 | 0.00 | 0.00 | 48 | 1010.4 |
| 20260507210007 | 11 | 309 | 4.8 | 12.9 | 0.00 | 0.00 | 0.00 | 47 | 1010.3 |
| 20260507204506 | 11 | 325 | 1.6 | 8.0 | 0.00 | 0.00 | 0.00 | 46 | 1010.4 |
| 20260507203012 | 11 | 36 | 4.8 | 14.5 | 0.00 | 0.00 | 0.00 | 46 | 1010.5 |
| 20260507201503 | 11 | 321 | 8.0 | 16.1 | 0.00 | 0.00 | 0.00 | 46 | 1010.6 |
| 20260507200002 | 11 | 338 | 3.2 | 19.3 | 0.00 | 0.00 | 0.00 | 48 | 1010.5 |
| 20260507194503 | 11 | 355 | 4.8 | 16.1 | 0.00 | 0.00 | 0.00 | 47 | 1010.7 |
| 20260507193058 | 11 | 335 | 8.0 | 16.1 | 0.00 | 0.00 | 0.00 | 47 | 1010.9 |
| 20260507191558 | 11 | 303 | 3.2 | 16.1 | 0.00 | 0.00 | 0.00 | 48 | 1010.9 |
| 20260507190057 | 11 | 305 | 4.8 | 16.1 | 0.00 | 0.00 | 0.00 | 47 | 1011.0 |
| 20260507184557 | 11 | 5 | 4.8 | 12.9 | 0.00 | 0.00 | 0.00 | 47 | 1010.9 |
| 20260507183054 | 12 | 225 | 6.4 | 17.7 | 0.00 | 0.00 | 0.00 | 43 | 1011.0 |
| 20260507181552 | 11 | 46 | 6.4 | 16.1 | 0.00 | 0.00 | 0.00 | 45 | 1011.1 |
| 20260507180051 | 11 | 327 | 3.2 | 17.7 | 0.00 | 0.00 | 0.00 | 49 | 1011.3 |
| 20260507174550 | 12 | 26 | 6.4 | 19.3 | 0.00 | 0.00 | 0.00 | 45 | 1011.4 |
| 20260507173046 | 11 | 13 | 9.7 | 19.3 | 0.00 | 0.00 | 0.00 | 47 | 1011.4 |
| 20260507171544 | 11 | 5 | 1.6 | 14.5 | 0.00 | 0.00 | 0.00 | 47 | 1011.6 |
| 20260507170043 | 11 | 250 | 4.8 | 20.9 | 0.00 | 0.00 | 0.00 | 46 | 1011.7 |
| 20260507164541 | 11 | 15 | 4.8 | 22.5 | 0.00 | 0.00 | 0.00 | 47 | 1012.1 |
| 20260507163040 | 11 | 337 | 6.4 | 20.9 | 0.00 | 0.00 | 0.00 | 53 | 1012.1 |
| 20260507161540 | 11 | 254 | 4.8 | 22.5 | 0.00 | 0.00 | 0.00 | 48 | 1012.2 |
| 20260507160038 | 11 | 297 | 6.4 | 20.9 | 0.00 | 0.00 | 0.00 | 48 | 1012.3 |
| 20260507154534 | 10 | 45 | 6.4 | 14.5 | 0.00 | 0.00 | 0.00 | 50 | 1012.3 |
| 20260507153035 | 10 | 336 | 6.4 | 19.3 | 0.00 | 0.00 | 0.00 | 52 | 1012.6 |
| 20260507151532 | 10 | 239 | 20.9 | 38.6 | 0.00 | 0.00 | 0.00 | 47 | 1012.6 |
| 20260507150031 | 10 | 288 | 8.0 | 27.4 | 0.00 | 0.00 | 0.00 | 50 | 1012.8 |
| 20260507144534 | 10 | 309 | 4.8 | 22.5 | 0.00 | 0.03 | 0.00 | 53 | 1012.8 |
| 20260507143031 | 10 | 236 | 6.4 | 22.5 | 0.00 | 0.03 | 0.00 | 54 | 1013.1 |
| 20260507141525 | 10 | 21 | 6.4 | 12.9 | 0.00 | 0.03 | 0.00 | 53 | 1013.2 |
| 20260507140028 | 10 | 261 | 3.2 | 14.5 | 0.00 | 0.03 | 0.00 | 58 | 1013.3 |
| 20260507134520 | 8 | 193 | 4.8 | 14.5 | 0.00 | 0.10 | 0.00 | 61 | 1013.4 |
| 20260507133015 | 7 | 32 | 4.8 | 11.3 | 0.00 | 0.10 | 0.00 | 61 | 1013.4 |
| 20260507131511 | 6 | 217 | 1.6 | 6.4 | 0.00 | 0.10 | 0.00 | 83 | 1013.6 |
| 20260507130006 | 5 | 135 | 0.0 | 8.0 | 0.00 | 0.10 | 0.00 | 84 | 1013.5 |
| 20260507124512 | 3 | 123 | 0.0 | 4.8 | 0.00 | 0.18 | 0.00 | 86 | 1013.7 |
| 20260507123004 | 3 | 71 | 1.6 | 6.4 | 0.00 | 0.18 | 0.00 | 88 | 1013.8 |
| 20260507121504 | 2 | 122 | 1.6 | 4.8 | 0.00 | 0.18 | 0.00 | 92 | 1013.9 |
| 20260507120004 | 1 | 103 | 1.6 | 4.8 | 0.00 | 0.18 | 0.00 | 94 | 1013.9 |
| 20260507114504 | 0 | 299 | 0.0 | 1.6 | 0.00 | 0.38 | 0.00 | 94 | 1014.0 |
| 20260507113001 | -1 | 299 | 1.6 | 3.2 | 0.00 | 0.38 | 0.00 | 93 | 1014.0 |
| 20260507111600 | -1 | 299 | 0.0 | 0.0 | 0.00 | 0.38 | 0.00 | 92 | 1013.8 |
| 20260507110100 | -1 | 299 | 0.0 | 0.0 | 0.00 | 0.38 | 0.00 | 91 | 1013.6 |
| 20260507104558 | -1 | 299 | 0.0 | 0.0 | 0.00 | 0.69 | 0.00 | 91 | 1013.4 |
| 20260507103056 | -1 | 299 | 0.0 | 0.0 | 0.00 | 0.69 | 0.00 | 90 | 1013.3 |
| 20260507101604 | -1 | 299 | 0.0 | 0.0 | 0.00 | 0.69 | 0.00 | 90 | 1013.2 |
| 20260507100049 | -1 | 299 | 0.0 | 0.0 | 0.00 | 0.69 | 0.00 | 90 | 1013.3 |
| 20260507094555 | -1 | 299 | 0.0 | 0.0 | 0.00 | 0.99 | 0.00 | 90 | 1013.3 |
| 20260507093044 | -1 | 299 | 0.0 | 0.0 | 0.00 | 0.99 | 0.00 | 90 | 1013.3 |
| 20260507091555 | -1 | 299 | 0.0 | 0.0 | 0.00 | 0.99 | 0.00 | 89 | 1013.4 |
| 20260507084539 | 0 | 299 | 0.0 | 0.0 | 0.00 | 1.17 | 0.00 | 89 | 1013.4 |
| 20260507083041 | 0 | 299 | 0.0 | 0.0 | 0.00 | 1.17 | 0.00 | 88 | 1013.5 |
| 20260507081548 | 0 | 299 | 0.0 | 0.0 | 0.00 | 1.17 | 0.00 | 87 | 1013.6 |
| 20260507080031 | 0 | 299 | 0.0 | 0.0 | 0.00 | 1.17 | 0.00 | 87 | 1013.5 |
| 20260507074532 | 1 | 299 | 0.0 | 1.6 | 0.00 | 1.32 | 0.00 | 87 | 1013.5 |
| 20260507073026 | 1 | 299 | 1.6 | 3.2 | 0.00 | 1.32 | 0.00 | 87 | 1013.4 |
| 20260507071523 | 1 | 299 | 0.0 | 3.2 | 0.00 | 1.32 | 0.00 | 85 | 1013.4 |
| 20260507070020 | 2 | 299 | 0.0 | 3.2 | 0.00 | 1.32 | 0.00 | 85 | 1013.3 |
| 20260507064516 | 2 | 299 | 0.0 | 0.0 | 0.00 | 1.45 | 0.00 | 85 | 1013.3 |
| 20260507063013 | 3 | 299 | 0.0 | 1.6 | 0.00 | 1.45 | 0.00 | 85 | 1013.3 |
| 20260507061527 | 3 | 299 | 0.0 | 0.0 | 0.00 | 1.45 | 0.00 | 85 | 1013.3 |
| 20260507060008 | 3 | 299 | 0.0 | 3.2 | 0.00 | 1.45 | 0.00 | 85 | 1013.3 |
| 20260507054508 | 3 | 299 | 0.0 | 0.0 | 0.00 | 1.45 | 0.00 | 84 | 1013.4 |
| 20260507053006 | 4 | 299 | 0.0 | 3.2 | 0.00 | 1.45 | 0.00 | 84 | 1013.5 |
| 20260507051504 | 4 | 299 | 0.0 | 3.2 | 0.00 | 1.45 | 0.00 | 83 | 1013.5 |
| 20260507050006 | 4 | 346 | 0.0 | 3.2 | 0.00 | 1.45 | 0.00 | 85 | 1013.5 |
| 20260507044501 | 4 | 346 | 1.6 | 4.8 | 0.00 | 1.45 | 0.00 | 85 | 1013.6 |
| 20260507043100 | 4 | 323 | 0.0 | 4.8 | 0.00 | 1.45 | 0.00 | 84 | 1013.3 |
| 20260507041557 | 4 | 334 | 1.6 | 3.2 | 0.00 | 1.45 | 0.00 | 85 | 1013.5 |
| 20260507040055 | 4 | 223 | 1.6 | 6.4 | 0.00 | 1.45 | 0.00 | 85 | 1013.4 |
| 20260507034553 | 4 | 53 | 0.0 | 1.6 | 0.00 | 1.50 | 1.45 | 86 | 1013.3 |
| 20260507033050 | 5 | 46 | 0.0 | 0.0 | 0.00 | 1.50 | 1.45 | 85 | 1013.4 |
| 20260507031548 | 5 | 329 | 0.0 | 4.8 | 0.00 | 1.50 | 1.45 | 85 | 1013.1 |
| 20260507030048 | 5 | 350 | 1.6 | 6.4 | 0.00 | 1.50 | 1.45 | 85 | 1012.9 |
| 20260507024544 | 5 | 360 | 0.0 | 3.2 | 0.00 | 1.50 | 1.45 | 87 | 1012.8 |
| 20260507023043 | 5 | 234 | 0.0 | 0.0 | 0.00 | 1.50 | 1.45 | 85 | 1012.7 |
| 20260507021541 | 6 | 234 | 0.0 | 0.0 | 0.00 | 1.50 | 1.45 | 85 | 1012.8 |
| 20260507020038 | 6 | 234 | 0.0 | 1.6 | 0.00 | 1.50 | 1.45 | 84 | 1012.6 |
| 20260507014551 | 6 | 234 | 0.0 | 3.2 | 0.00 | 1.50 | 1.45 | 83 | 1013.0 |
| 20260507013036 | 6 | 283 | 0.0 | 0.0 | 0.00 | 1.50 | 1.45 | 81 | 1012.7 |
| 20260507011533 | 7 | 283 | 0.0 | 3.2 | 0.00 | 1.50 | 1.45 | 79 | 1013.1 |
| 20260507010031 | 7 | 300 | 0.0 | 3.2 | 0.00 | 1.50 | 1.45 | 76 | 1012.9 |
| 20260507004529 | 7 | 300 | 0.0 | 8.0 | 0.00 | 1.50 | 1.45 | 73 | 1013.0 |
| 20260507003027 | 7 | 315 | 0.0 | 4.8 | 0.00 | 1.50 | 1.45 | 73 | 1012.5 |
| 20260507001526 | 7 | 9 | 3.2 | 8.0 | 0.00 | 1.50 | 1.45 | 72 | 1012.8 |
| 20260507000027 | 8 | 21 | 1.6 | 9.7 | 0.00 | 1.50 | 1.45 | 71 | 1012.2 |
| 20260506234521 | 8 | 16 | 0.0 | 6.4 | 0.00 | 1.57 | 1.45 | 70 | 1011.9 |
| 20260506233020 | 8 | 311 | 4.8 | 14.5 | 0.00 | 1.57 | 1.45 | 66 | 1011.5 |
| 20260506231518 | 8 | 283 | 1.6 | 6.4 | 0.00 | 1.57 | 1.45 | 68 | 1011.3 |
| 20260506230017 | 8 | 338 | 1.6 | 8.0 | 0.00 | 1.57 | 1.45 | 67 | 1011.1 |
| 20260506224516 | 9 | 23 | 6.4 | 16.1 | 0.00 | 1.57 | 1.45 | 67 | 1010.9 |
| 20260506223013 | 9 | 360 | 0.0 | 4.8 | 0.00 | 1.57 | 1.45 | 78 | 1010.8 |
| 20260506221510 | 9 | 334 | 0.0 | 9.7 | 0.00 | 1.57 | 1.45 | 78 | 1010.6 |